Location: Acheville
(50.3840°N, 2.8827°E)
Time: 19:19:30
(UTC+00:00)

USA 215 - Pass Details

Date: 24 October 2021
Orbit: 1099 x 1109 km, 123.0° (Epoch: 20 November)

Event Time Altitude Azimuth Distance (km) Brightness Sun altitude
Exits shadow 19:08:35 32° 49° (NE) 1,805 4.1 -24.5°
Maximum altitude 19:11:36 57° 346° (NNW) 1,282 3.6 -24.9°
Drops below altitude 10° 19:17:58 10° 270° (W) 2,964 6.5 -25.9°
Sets 19:20:29 0° 267° (W) 3,923 7.3 -26.3°
